Athens Eleftherios, Greece

2:04 PM EEST on March 26, 2017 (GMT +0300)
Eleftherios Venizelos International

Weather History for LGAV - October, 2012

Change the Weather History Date:

Friday, October 5, 2012

  Actual Average Record
Temperature  
Mean Temperature 68 °F -  
Max Temperature 80 °F - - ()
Min Temperature 57 °F - - ()
Cooling Degree Days 4    
Growing Degree Days 18 (Base 50)    
Moisture  
Dew Point 58 °F    
Average Humidity 68    
Maximum Humidity 94    
Minimum Humidity 42    
Precipitation  
Precipitation 0.00 in - - ()
Sea Level Pressure  
Sea Level Pressure 30.01 in    
Wind  
Wind Speed 5 mph ()    
Max Wind Speed 18 mph    
Max Gust Speed 28 mph    
Visibility 6.2 miles    
Events      
T = Trace of Precipitation, MM = Missing Value Source: Averaged Metar Reports

Daily Weather History Graph

Daily Weather History Graph

Search for Another Location

Airport or City:

Trip Planner

Search our weather history database for the weather conditions in past years. The results will help you decide how hot, cold, wet, or windy it might be!

Date:

Astronomy

Oct. 05, 2012 Rise Set
Actual Time 7:23 AM EEST 7:00 PM EEST
Civil Twilight 6:57 AM EEST 7:27 PM EEST
Nautical Twilight 6:26 AM EEST 7:57 PM EEST
Astronomical Twilight 5:56 AM EEST 8:28 PM EEST
Moon 10:13 PM EEST (10/5) 12:11 PM EEST (10/5)
Length of Visible Light 12h 29m
Length of Day
11h 37m
Waning Gibbous, 76% of the Moon is Illuminated
Oct 5
Waning Gibbous
Oct 8
Last Quarter
Oct 15
New
Oct 22
First Quarter
Oct 29
Full

Hourly Weather History & Observations

Time (EEST) Temp. Heat Index Dew Point Humidity Pressure Visibility Wind Dir Wind Speed Gust Speed Precip Events Conditions
12:20 AM 64.4 °F - 60.8 °F 88% 29.95 in 6.2 mi Calm Calm - N/A   Partly Cloudy
12:50 AM 62.6 °F - 59.0 °F 88% 29.95 in 6.2 mi Variable 3.5 mph - N/A   Partly Cloudy
1:20 AM 62.6 °F - 59.0 °F 88% 29.98 in 6.2 mi WNW 2.3 mph - N/A   Partly Cloudy
1:50 AM 62.6 °F - 59.0 °F 88% 29.98 in 6.2 mi Variable 1.2 mph - N/A   Partly Cloudy
2:20 AM 62.6 °F - 59.0 °F 88% 29.98 in 6.2 mi West 1.2 mph - N/A   Partly Cloudy
2:50 AM 62.6 °F - 59.0 °F 88% 29.98 in 6.2 mi Variable 1.2 mph - N/A   Partly Cloudy
3:20 AM 59.0 °F - 57.2 °F 94% 29.98 in 6.2 mi NW 3.5 mph - N/A   Partly Cloudy
3:50 AM 59.0 °F - 55.4 °F 88% 29.95 in 6.2 mi West 4.6 mph - N/A   Partly Cloudy
4:20 AM 59.0 °F - 57.2 °F 94% 29.95 in 6.2 mi West 4.6 mph - N/A   Partly Cloudy
4:50 AM 60.8 °F - 57.2 °F 88% 29.98 in 6.2 mi WNW 3.5 mph - N/A   Partly Cloudy
5:20 AM 60.8 °F - 57.2 °F 88% 29.98 in 6.2 mi West 3.5 mph - N/A   Partly Cloudy
5:50 AM 57.2 °F - 55.4 °F 94% 29.98 in - WNW 3.5 mph - N/A   Clear
6:20 AM 59.0 °F - 55.4 °F 88% 29.98 in - WNW 2.3 mph - N/A   Clear
6:50 AM 57.2 °F - 53.6 °F 88% 29.98 in - Variable 2.3 mph - N/A   Clear
7:20 AM 62.6 °F - 57.2 °F 82% 29.98 in - NW 1.2 mph - N/A   Clear
7:50 AM 62.6 °F - 57.2 °F 82% 29.98 in - Variable 1.2 mph - N/A   Clear
8:20 AM 64.4 °F - 57.2 °F 77% 29.98 in - Variable 1.2 mph - N/A   Clear
8:50 AM 68.0 °F - 60.8 °F 78% 30.01 in - Variable 1.2 mph - N/A   Clear
9:20 AM 69.8 °F - 60.8 °F 73% 30.01 in - Variable 2.3 mph - N/A   Clear
9:50 AM 71.6 °F - 59.0 °F 64% 30.01 in - East 4.6 mph - N/A   Clear
10:20 AM 75.2 °F - 59.0 °F 57% 30.01 in - Variable 3.5 mph - N/A   Clear
10:50 AM 77.0 °F - 59.0 °F 54% 30.01 in - East 5.8 mph - N/A   Clear
11:20 AM 77.0 °F - 59.0 °F 54% 30.01 in 6.2 mi NE 10.4 mph - N/A   Partly Cloudy
11:50 AM 78.8 °F - 55.4 °F 44% 30.04 in 6.2 mi NE 10.4 mph - N/A   Partly Cloudy
12:20 PM 78.8 °F - 57.2 °F 47% 30.04 in 6.2 mi NE 13.8 mph - N/A   Partly Cloudy
12:50 PM 80.6 °F 80.5 °F 55.4 °F 42% 30.04 in 6.2 mi NE 18.4 mph - N/A   Partly Cloudy
1:20 PM 80.6 °F 80.5 °F 55.4 °F 42% 30.01 in 6.2 mi NE 16.1 mph - N/A   Partly Cloudy
1:50 PM 80.6 °F 81.1 °F 59.0 °F 48% 30.01 in 6.2 mi NE 16.1 mph - N/A   Partly Cloudy
2:20 PM 80.6 °F 81.1 °F 59.0 °F 48% 30.01 in 6.2 mi NE 17.3 mph - N/A   Partly Cloudy
2:50 PM 80.6 °F 81.1 °F 59.0 °F 48% 30.01 in 6.2 mi ENE 16.1 mph 27.6 mph N/A   Partly Cloudy
3:20 PM 80.6 °F 80.8 °F 57.2 °F 45% 30.01 in 6.2 mi ENE 18.4 mph - N/A   Partly Cloudy
3:50 PM 78.8 °F - 57.2 °F 47% 30.01 in 6.2 mi ENE 18.4 mph - N/A   Partly Cloudy
4:20 PM 78.8 °F - 59.0 °F 51% 30.01 in 6.2 mi ENE 17.3 mph - N/A   Partly Cloudy
4:50 PM 78.8 °F - 59.0 °F 51% 30.01 in 6.2 mi ENE 17.3 mph - N/A   Scattered Clouds
5:20 PM 77.0 °F - 59.0 °F 54% 30.01 in 6.2 mi ENE 18.4 mph - N/A   Partly Cloudy
5:50 PM 77.0 °F - 59.0 °F 54% 30.01 in 6.2 mi NE 16.1 mph - N/A   Partly Cloudy
6:20 PM 75.2 °F - 59.0 °F 57% 30.04 in 6.2 mi NE 15.0 mph - N/A   Scattered Clouds
6:50 PM 75.2 °F - 59.0 °F 57% 30.04 in 6.2 mi NE 13.8 mph - N/A   Scattered Clouds
7:20 PM 73.4 °F - 59.0 °F 61% 30.04 in 6.2 mi NNE 8.1 mph - N/A   Partly Cloudy
7:50 PM 73.4 °F - 59.0 °F 61% 30.04 in 6.2 mi Variable 1.2 mph - N/A   Partly Cloudy
8:20 PM 71.6 °F - 59.0 °F 64% 30.06 in 6.2 mi North 1.2 mph - N/A   Partly Cloudy
8:50 PM 71.6 °F - 59.0 °F 64% 30.06 in 6.2 mi North 5.8 mph - N/A   Partly Cloudy
9:20 PM 71.6 °F - 59.0 °F 64% 30.06 in 6.2 mi NNW 3.5 mph - N/A   Partly Cloudy
9:50 PM 69.8 °F - 59.0 °F 68% 30.06 in 6.2 mi SSW 2.3 mph - N/A   Partly Cloudy
10:20 PM 69.8 °F - 57.2 °F 64% 30.06 in 6.2 mi West 3.5 mph - N/A   Partly Cloudy
10:50 PM 68.0 °F - 57.2 °F 68% 30.06 in 6.2 mi Variable 3.5 mph - N/A   Partly Cloudy
11:20 PM 66.2 °F - 55.4 °F 68% 30.06 in 6.2 mi NW 4.6 mph - N/A   Partly Cloudy
11:50 PM 69.8 °F - 53.6 °F 56% 30.06 in 6.2 mi Variable 2.3 mph - N/A   Partly Cloudy